Find Gorizont

NORAD ID: 23880 Int'l Des: 1996-034 Owner: GPKS Country: RU operational
HEOCIRCULAR

实时位置

正在加载3D地球...

关于 Gorizont

正在加载描述...

即将过境

Passes for default location (London). Set your location on the main map for personalized predictions.

高度历史

Loading altitude history...

两行轨道根数

1 23880U 96034A 26105.47400512 -.00000138 00000-0 00000-0 0 9993
2 23880 14.3910 355.4640 0009214 356.8283 181.9718 1.00223360109405
Epoch: Apr 15, 2026 • Age: 31 hours

当前状态

高度 35795.5 km
速度 3.07 km/s
星下点 -14.25°S, 159.92°E
发射日期 May 25, 1996
运行时间 29.8 years
类型 other

技术详情

分类 Payload
质量 2120.00 kg
干质量 2000.00 kg
总质量 2120.00 kg
长度 5.50 m
直径 3.30 m
跨度 9.50 m
形状 Cyl + 2 Pan
制造商 NPOPMR
平台类型 Gorizont
阶段状态 In Orbit
所有者/国家 GPKS/RU

Most Searched